Location: Blériot-Plage
(50.9575°N, 1.8224°E)
Time: 13:16:22
(UTC+00:00)

Cosmos 1805 - Pass Details

Date: 15 May 2026
Orbit: 410 x 414 km, 82.5° (Epoch: 11 June)

Event Time Altitude Azimuth Distance (km) Brightness Sun altitude
Rises 20:29:56 0° 359° (N) 2,382 7.3 -7.5°
Reaches altitude 10° 20:32:15 10° 14° (NNE) 1,510 6.0 -7.8°
Maximum altitude 20:34:59 24° 71° (ENE) 914 4.2 -8.1°
Enters shadow 20:37:27 12° 125° (SE) 1,408 4.8 -8.4°
